Time,TemperatureF,DewpointF,PressureIn,WindDirection,WindDirectionDegrees,WindSpeedMPH,WindSpeedGustMPH,Humidity,HourlyPrecipIn,Conditions,Clouds,dailyrainin,SoftwareType,DateUTC
2013-01-15 00:00:00,36.1,18.3,30.36,NNE,15,0.0,4.0,48,0.00,,---,0.00,VWS V14.01,2013-01-15 08:00:00,
2013-01-15 00:03:00,36.2,16.9,30.36,NNE,15,0.0,1.0,45,0.00,,---,0.00,VWS V14.01,2013-01-15 08:03:00,
2013-01-15 00:08:00,36.5,18.2,30.36,NNE,15,0.0,1.0,47,0.00,,---,0.00,VWS V14.01,2013-01-15 08:08:00,
2013-01-15 00:13:00,36.6,16.8,30.37,East,86,0.0,1.0,44,0.00,,---,0.00,VWS V14.01,2013-01-15 08:13:00,
2013-01-15 00:18:00,36.4,18.1,30.37,East,86,1.0,1.0,47,0.00,,---,0.00,VWS V14.01,2013-01-15 08:18:00,
2013-01-15 00:23:00,36.3,18.0,30.37,East,86,0.0,1.0,47,0.00,,---,0.00,VWS V14.01,2013-01-15 08:23:00,
2013-01-15 00:28:00,36.3,17.5,30.37,NNE,22,1.0,1.0,46,0.00,,---,0.00,VWS V14.01,2013-01-15 08:28:00,
2013-01-15 00:33:00,36.2,17.9,30.37,NNE,18,0.0,1.0,47,0.00,,---,0.00,VWS V14.01,2013-01-15 08:33:00,
2013-01-15 00:38:00,36.2,17.9,30.37,NNE,18,1.0,1.0,47,0.00,,---,0.00,VWS V14.01,2013-01-15 08:38:00,
2013-01-15 00:43:00,36.3,17.0,30.37,NNE,18,0.0,1.0,45,0.00,,---,0.00,VWS V14.01,2013-01-15 08:43:00,
2013-01-15 00:48:00,36.0,17.7,30.37,NNE,18,0.0,1.0,47,0.00,,---,0.00,VWS V14.01,2013-01-15 08:48:00,
2013-01-15 00:53:00,35.5,19.2,30.38,NNE,18,0.0,1.0,51,0.00,,---,0.00,VWS V14.01,2013-01-15 08:53:00,
2013-01-15 00:58:00,35.1,18.8,30.38,NNE,18,0.0,1.0,51,0.00,,---,0.00,VWS V14.01,2013-01-15 08:58:00,
2013-01-15 01:00:00,35.2,18.9,30.38,NNE,19,0.0,1.0,51,0.00,,---,0.00,VWS V14.01,2013-01-15 09:00:00,
2013-01-15 01:03:00,35.3,18.5,30.39,NNE,19,0.0,1.0,50,0.00,,---,0.00,VWS V14.01,2013-01-15 09:03:00,
2013-01-15 01:08:00,35.1,19.3,30.39,NNE,19,0.0,1.0,52,0.00,,---,0.00,VWS V14.01,2013-01-15 09:08:00,
2013-01-15 01:13:00,34.8,20.3,30.39,NNE,26,0.0,1.0,55,0.00,,---,0.00,VWS V14.01,2013-01-15 09:13:00,
2013-01-15 01:18:00,34.8,19.0,30.39,North,4,0.0,1.0,52,0.00,,---,0.00,VWS V14.01,2013-01-15 09:18:00,
2013-01-15 01:23:00,34.6,19.2,30.39,North,5,0.0,1.0,53,0.00,,---,0.00,VWS V14.01,2013-01-15 09:23:00,
2013-01-15 01:28:00,34.7,19.8,30.39,North,5,0.0,1.0,54,0.00,,---,0.00,VWS V14.01,2013-01-15 09:28:00,
2013-01-15 01:33:00,34.5,19.6,30.40,North,5,0.0,1.0,54,0.00,,---,0.00,VWS V14.01,2013-01-15 09:33:00,
2013-01-15 01:38:00,34.2,18.9,30.39,North,5,0.0,1.0,53,0.00,,---,0.00,VWS V14.01,2013-01-15 09:38:00,
2013-01-15 01:43:00,34.0,18.2,30.40,North,5,0.0,1.0,52,0.00,,---,0.00,VWS V14.01,2013-01-15 09:43:00,
2013-01-15 01:48:00,34.3,19.4,30.40,North,4,0.0,1.0,54,0.00,,---,0.00,VWS V14.01,2013-01-15 09:48:00,
2013-01-15 01:53:00,33.7,20.5,30.40,North,357,1.0,1.0,58,0.00,,---,0.00,VWS V14.01,2013-01-15 09:53:00,
2013-01-15 01:58:00,33.3,20.5,30.40,WSW,250,0.0,1.0,59,0.00,,---,0.00,VWS V14.01,2013-01-15 09:58:00,
2013-01-15 02:00:00,33.5,21.5,30.40,WSW,250,0.0,1.0,61,0.00,,---,0.00,VWS V14.01,2013-01-15 10:00:00,
2013-01-15 02:03:00,33.6,21.2,30.40,WSW,250,0.0,1.0,60,0.00,,---,0.00,VWS V14.01,2013-01-15 10:03:00,
2013-01-15 02:08:00,33.4,21.8,30.40,WSW,250,0.0,1.0,62,0.00,,---,0.00,VWS V14.01,2013-01-15 10:08:00,
2013-01-15 02:13:00,33.3,21.7,30.41,NNW,334,0.0,1.0,62,0.00,,---,0.00,VWS V14.01,2013-01-15 10:13:00,
2013-01-15 02:18:00,33.6,22.0,30.41,ENE,70,1.0,1.0,62,0.00,,---,0.00,VWS V14.01,2013-01-15 10:18:00,
2013-01-15 02:23:00,34.3,21.1,30.41,East,84,0.0,1.0,58,0.00,,---,0.00,VWS V14.01,2013-01-15 10:23:00,
2013-01-15 02:28:00,34.1,20.9,30.41,NE,50,0.0,1.0,58,0.00,,---,0.00,VWS V14.01,2013-01-15 10:28:00,
2013-01-15 02:33:00,33.8,21.8,30.41,East,92,0.0,1.0,61,0.00,,---,0.00,VWS V14.01,2013-01-15 10:33:00,
2013-01-15 02:38:00,33.3,20.9,30.41,NW,325,1.0,1.0,60,0.00,,---,0.00,VWS V14.01,2013-01-15 10:38:00,
2013-01-15 02:43:00,33.2,20.8,30.41,SSE,162,0.0,2.0,60,0.00,,---,0.00,VWS V14.01,2013-01-15 10:43:00,
2013-01-15 02:48:00,33.0,21.8,30.41,NW,305,1.0,2.0,63,0.00,,---,0.00,VWS V14.01,2013-01-15 10:48:00,
2013-01-15 02:53:00,32.9,22.1,30.42,East,80,1.0,3.0,64,0.00,,---,0.00,VWS V14.01,2013-01-15 10:53:00,
2013-01-15 02:58:00,32.8,22.0,30.42,NW,316,1.0,3.0,64,0.00,,---,0.00,VWS V14.01,2013-01-15 10:58:00,
2013-01-15 03:00:00,32.9,21.7,30.41,NW,316,0.0,3.0,63,0.00,,---,0.00,VWS V14.01,2013-01-15 11:00:00,
2013-01-15 03:03:00,33.0,21.8,30.41,NW,316,0.0,0.0,63,0.00,,---,0.00,VWS V14.01,2013-01-15 11:03:00,
2013-01-15 03:08:00,33.0,22.2,30.41,NNE,26,1.0,1.0,64,0.00,,---,0.00,VWS V14.01,2013-01-15 11:08:00,
2013-01-15 03:13:00,32.9,21.3,30.41,North,8,0.0,2.0,62,0.00,,---,0.00,VWS V14.01,2013-01-15 11:13:00,
2013-01-15 03:18:00,33.1,20.7,30.41,North,8,0.0,2.0,60,0.00,,---,0.00,VWS V14.01,2013-01-15 11:18:00,
2013-01-15 03:23:00,33.2,20.8,30.41,North,8,0.0,2.0,60,0.00,,---,0.00,VWS V14.01,2013-01-15 11:23:00,
2013-01-15 03:28:00,32.9,22.4,30.41,East,88,0.0,2.0,65,0.00,,---,0.00,VWS V14.01,2013-01-15 11:28:00,
2013-01-15 03:33:00,32.8,22.0,30.41,NE,49,0.0,2.0,64,0.00,,---,0.00,VWS V14.01,2013-01-15 11:33:00,
2013-01-15 03:38:00,32.7,21.5,30.42,NE,49,0.0,2.0,63,0.00,,---,0.00,VWS V14.01,2013-01-15 11:38:00,
2013-01-15 03:43:00,32.5,22.4,30.42,NE,53,0.0,2.0,66,0.00,,---,0.00,VWS V14.01,2013-01-15 11:43:00,
2013-01-15 03:48:00,32.1,22.4,30.41,NE,54,0.0,2.0,67,0.00,,---,0.00,VWS V14.01,2013-01-15 11:48:00,
2013-01-15 03:53:00,32.0,22.6,30.41,NE,53,0.0,2.0,68,0.00,,---,0.00,VWS V14.01,2013-01-15 11:53:00,
2013-01-15 03:58:00,32.1,22.4,30.41,NE,53,0.0,2.0,67,0.00,,---,0.00,VWS V14.01,2013-01-15 11:58:00,
2013-01-15 04:00:00,32.1,22.4,30.41,NE,54,0.0,2.0,67,0.00,,---,0.00,VWS V14.01,2013-01-15 12:00:00,
2013-01-15 04:03:00,32.2,22.5,30.41,ENE,58,0.0,1.0,67,0.00,,---,0.00,VWS V14.01,2013-01-15 12:03:00,
2013-01-15 04:08:00,32.3,22.9,30.41,East,99,0.0,1.0,68,0.00,,---,0.00,VWS V14.01,2013-01-15 12:08:00,
2013-01-15 04:13:00,32.1,22.8,30.41,East,99,0.0,1.0,68,0.00,,---,0.00,VWS V14.01,2013-01-15 12:13:00,
2013-01-15 04:18:00,31.8,22.5,30.41,East,99,0.0,1.0,68,0.00,,---,0.00,VWS V14.01,2013-01-15 12:18:00,
2013-01-15 04:23:00,31.7,22.7,30.41,East,99,0.0,1.0,69,0.00,,---,0.00,VWS V14.01,2013-01-15 12:23:00,
2013-01-15 04:28:00,32.1,22.4,30.41,East,99,0.0,1.0,67,0.00,,---,0.00,VWS V14.01,2013-01-15 12:28:00,
2013-01-15 04:33:00,32.4,21.6,30.41,East,99,0.0,1.0,64,0.00,,---,0.00,VWS V14.01,2013-01-15 12:33:00,
2013-01-15 04:38:00,32.5,21.3,30.41,North,351,2.0,2.0,63,0.00,,---,0.00,VWS V14.01,2013-01-15 12:38:00,
2013-01-15 04:43:00,33.0,20.2,30.41,North,356,1.0,2.0,59,0.00,,---,0.00,VWS V14.01,2013-01-15 12:43:00,
2013-01-15 04:48:00,34.0,19.5,30.41,NNW,330,0.0,2.0,55,0.00,,---,0.00,VWS V14.01,2013-01-15 12:48:00,
2013-01-15 04:53:00,33.6,22.0,30.41,NNW,330,0.0,2.0,62,0.00,,---,0.00,VWS V14.01,2013-01-15 12:53:00,
2013-01-15 04:58:00,32.6,22.1,30.41,NNW,330,0.0,2.0,65,0.00,,---,0.00,VWS V14.01,2013-01-15 12:58:00,
2013-01-15 05:00:00,32.2,22.1,30.41,NNW,330,0.0,2.0,66,0.00,,---,0.00,VWS V14.01,2013-01-15 13:00:00,
2013-01-15 05:03:00,31.6,21.6,30.41,NNW,330,0.0,0.0,66,0.00,,---,0.00,VWS V14.01,2013-01-15 13:03:00,
2013-01-15 05:08:00,31.0,22.0,30.41,NE,50,0.0,1.0,69,0.00,,---,0.00,VWS V14.01,2013-01-15 13:08:00,
2013-01-15 05:13:00,31.1,22.5,30.41,ENE,65,1.0,2.0,70,0.00,,---,0.00,VWS V14.01,2013-01-15 13:13:00,
2013-01-15 05:18:00,30.9,22.3,30.41,ENE,60,0.0,2.0,70,0.00,,---,0.00,VWS V14.01,2013-01-15 13:18:00,
2013-01-15 05:23:00,31.0,22.7,30.41,ENE,60,0.0,2.0,71,0.00,,---,0.00,VWS V14.01,2013-01-15 13:23:00,
2013-01-15 05:28:00,31.1,22.5,30.42,ENE,60,0.0,2.0,70,0.00,,---,0.00,VWS V14.01,2013-01-15 13:28:00,
2013-01-15 05:33:00,31.4,23.1,30.42,ENE,68,0.0,2.0,71,0.00,,---,0.00,VWS V14.01,2013-01-15 13:33:00,
2013-01-15 05:38:00,31.5,22.9,30.42,ENE,71,0.0,2.0,70,0.00,,---,0.00,VWS V14.01,2013-01-15 13:38:00,
2013-01-15 05:43:00,31.6,22.6,30.42,ENE,60,1.0,2.0,69,0.00,,---,0.00,VWS V14.01,2013-01-15 13:43:00,
2013-01-15 05:48:00,31.9,22.2,30.42,ENE,61,0.0,2.0,67,0.00,,---,0.00,VWS V14.01,2013-01-15 13:48:00,
2013-01-15 05:53:00,32.2,21.8,30.42,ENE,61,0.0,2.0,65,0.00,,---,0.00,VWS V14.01,2013-01-15 13:53:00,
2013-01-15 05:58:00,32.6,21.0,30.42,ENE,61,0.0,2.0,62,0.00,,---,0.00,VWS V14.01,2013-01-15 13:58:00,
2013-01-15 06:00:00,32.6,21.0,30.43,ENE,61,0.0,2.0,62,0.00,,---,0.00,VWS V14.01,2013-01-15 14:00:00,
2013-01-15 06:03:00,32.4,20.9,30.43,ENE,61,0.0,0.0,62,0.00,,---,0.00,VWS V14.01,2013-01-15 14:03:00,
2013-01-15 06:08:00,32.1,22.4,30.43,ENE,60,0.0,1.0,67,0.00,,---,0.00,VWS V14.01,2013-01-15 14:08:00,
2013-01-15 06:13:00,31.4,22.4,30.43,NNE,13,1.0,1.0,69,0.00,,---,0.00,VWS V14.01,2013-01-15 14:13:00,
2013-01-15 06:18:00,31.1,22.5,30.43,NNW,347,0.0,1.0,70,0.00,,---,0.00,VWS V14.01,2013-01-15 14:18:00,
2013-01-15 06:23:00,31.0,22.7,30.43,NNW,347,0.0,1.0,71,0.00,,---,0.00,VWS V14.01,2013-01-15 14:23:00,
2013-01-15 06:28:00,30.8,22.5,30.43,NNW,347,1.0,1.0,71,0.00,,---,0.00,VWS V14.01,2013-01-15 14:28:00,
2013-01-15 06:33:00,30.8,22.9,30.43,NNW,347,0.0,1.0,72,0.00,,---,0.00,VWS V14.01,2013-01-15 14:33:00,
2013-01-15 06:38:00,30.5,22.6,30.43,NNW,347,0.0,1.0,72,0.00,,---,0.00,VWS V14.01,2013-01-15 14:38:00,
2013-01-15 06:43:00,30.3,22.7,30.43,NNW,347,0.0,1.0,73,0.00,,---,0.00,VWS V14.01,2013-01-15 14:43:00,
2013-01-15 06:48:00,30.5,22.9,30.43,NNW,347,0.0,1.0,73,0.00,,---,0.00,VWS V14.01,2013-01-15 14:48:00,
2013-01-15 06:53:00,30.6,23.3,30.43,NNW,347,0.0,1.0,74,0.00,,---,0.00,VWS V14.01,2013-01-15 14:53:00,
2013-01-15 06:58:00,30.9,23.3,30.43,NNW,347,0.0,1.0,73,0.00,,---,0.00,VWS V14.01,2013-01-15 14:58:00,
2013-01-15 07:00:00,30.9,23.3,30.44,NNW,347,0.0,1.0,73,0.00,,---,0.00,VWS V14.01,2013-01-15 15:00:00,
2013-01-15 07:03:00,31.0,23.4,30.44,NNW,348,0.0,1.0,73,0.00,,---,0.00,VWS V14.01,2013-01-15 15:03:00,
2013-01-15 07:08:00,31.3,23.3,30.44,North,11,1.0,1.0,72,0.00,,---,0.00,VWS V14.01,2013-01-15 15:08:00,
2013-01-15 07:13:00,31.4,23.4,30.44,North,11,0.0,1.0,72,0.00,,---,0.00,VWS V14.01,2013-01-15 15:13:00,
2013-01-15 07:18:00,31.2,23.2,30.44,North,11,0.0,1.0,72,0.00,,---,0.00,VWS V14.01,2013-01-15 15:18:00,
2013-01-15 07:23:00,31.4,23.8,30.44,NNE,12,0.0,1.0,73,0.00,,---,0.00,VWS V14.01,2013-01-15 15:23:00,
2013-01-15 07:28:00,32.2,24.5,30.44,NNE,12,0.0,1.0,73,0.00,,---,0.00,VWS V14.01,2013-01-15 15:28:00,
2013-01-15 07:33:00,33.0,25.3,30.44,NNE,13,0.0,1.0,73,0.00,,---,0.00,VWS V14.01,2013-01-15 15:33:00,
2013-01-15 07:38:00,33.7,26.0,30.45,SSE,167,0.0,1.0,73,0.00,,---,0.00,VWS V14.01,2013-01-15 15:38:00,
2013-01-15 07:43:00,33.6,24.9,30.45,SSW,206,0.0,1.0,70,0.00,,---,0.00,VWS V14.01,2013-01-15 15:43:00,
2013-01-15 07:48:00,33.2,24.5,30.46,ESE,102,0.0,2.0,70,0.00,,---,0.00,VWS V14.01,2013-01-15 15:48:00,
2013-01-15 07:53:00,33.5,25.1,30.45,North,8,0.0,2.0,71,0.00,,---,0.00,VWS V14.01,2013-01-15 15:53:00,
2013-01-15 07:58:00,34.8,25.7,30.45,SSE,167,0.0,2.0,69,0.00,,---,0.00,VWS V14.01,2013-01-15 15:58:00,
2013-01-15 08:00:00,35.3,25.5,30.46,South,188,2.0,2.0,67,0.00,,---,0.00,VWS V14.01,2013-01-15 16:00:00,
2013-01-15 08:03:00,35.6,25.7,30.46,ESE,117,0.0,2.0,67,0.00,,---,0.00,VWS V14.01,2013-01-15 16:03:00,
2013-01-15 08:08:00,36.0,26.1,30.46,South,169,0.0,2.0,67,0.00,,---,0.00,VWS V14.01,2013-01-15 16:08:00,
2013-01-15 08:13:00,37.2,26.5,30.46,SSE,159,0.0,2.0,65,0.00,,---,0.00,VWS V14.01,2013-01-15 16:13:00,
2013-01-15 08:18:00,38.1,27.0,30.46,South,169,0.0,2.0,64,0.00,,---,0.00,VWS V14.01,2013-01-15 16:18:00,
2013-01-15 08:23:00,38.8,27.7,30.46,South,172,0.0,2.0,64,0.00,,---,0.00,VWS V14.01,2013-01-15 16:23:00,
2013-01-15 08:28:00,39.8,27.5,30.47,SSE,153,0.0,2.0,61,0.00,,---,0.00,VWS V14.01,2013-01-15 16:28:00,
2013-01-15 08:33:00,40.4,27.6,30.47,SE,134,2.0,3.0,60,0.00,,---,0.00,VWS V14.01,2013-01-15 16:33:00,
2013-01-15 08:38:00,41.2,26.7,30.47,SE,129,0.0,3.0,56,0.00,,---,0.00,VWS V14.01,2013-01-15 16:38:00,
2013-01-15 08:43:00,41.0,26.5,30.47,SE,129,0.0,3.0,56,0.00,,---,0.00,VWS V14.01,2013-01-15 16:43:00,
2013-01-15 08:48:00,41.7,25.9,30.47,SE,129,0.0,3.0,53,0.00,,---,0.00,VWS V14.01,2013-01-15 16:48:00,
2013-01-15 08:53:00,43.1,25.7,30.48,SE,134,0.0,3.0,50,0.00,,---,0.00,VWS V14.01,2013-01-15 16:53:00,
2013-01-15 08:58:00,44.3,24.3,30.47,SE,134,0.0,3.0,45,0.00,,---,0.00,VWS V14.01,2013-01-15 16:58:00,
2013-01-15 09:00:00,44.6,24.0,30.48,SE,134,0.0,3.0,44,0.00,,---,0.00,VWS V14.01,2013-01-15 17:00:00,
2013-01-15 09:03:00,45.5,25.9,30.48,SSW,193,0.0,1.0,46,0.00,,---,0.00,VWS V14.01,2013-01-15 17:03:00,
2013-01-15 09:08:00,47.5,27.8,30.48,SSE,158,1.0,1.0,46,0.00,,---,0.00,VWS V14.01,2013-01-15 17:08:00,
2013-01-15 09:13:00,48.3,28.0,30.48,SSE,158,0.0,2.0,45,0.00,,---,0.00,VWS V14.01,2013-01-15 17:13:00,
2013-01-15 09:18:00,48.7,26.6,30.47,SE,146,0.0,2.0,42,0.00,,---,0.00,VWS V14.01,2013-01-15 17:18:00,
2013-01-15 09:23:00,48.9,25.7,30.47,SSE,160,0.0,2.0,40,0.00,,---,0.00,VWS V14.01,2013-01-15 17:23:00,
2013-01-15 09:28:00,49.9,26.0,30.48,SSE,158,2.0,3.0,39,0.00,,---,0.00,VWS V14.01,2013-01-15 17:28:00,
2013-01-15 10:00:00,54.5,24.5,30.48,SSE,158,1.0,5.0,31,0.00,,---,0.00,VWS V14.01,2013-01-15 18:00:00,
2013-01-15 11:00:00,57.1,24.3,30.43,WNW,292,2.0,7.0,28,0.00,,---,0.00,VWS V14.01,2013-01-15 19:00:00,
2013-01-15 12:00:00,56.5,27.0,30.39,WNW,292,3.0,9.0,32,0.00,,---,0.00,VWS V14.01,2013-01-15 20:00:00,
2013-01-15 13:00:00,56.2,26.0,30.36,WNW,292,4.0,12.0,31,0.00,,---,0.00,VWS V14.01,2013-01-15 21:00:00,
2013-01-15 14:00:00,56.7,25.6,30.35,NW,315,5.0,13.0,30,0.00,,---,0.00,VWS V14.01,2013-01-15 22:00:00,
2013-01-15 15:00:00,56.7,24.8,30.35,NW,315,5.0,12.0,29,0.00,,---,0.00,VWS V14.01,2013-01-15 23:00:00,
2013-01-15 16:00:00,56.1,25.1,30.36,NW,315,4.0,13.0,30,0.00,,---,0.00,VWS V14.01,2013-01-16 00:00:00,
2013-01-15 17:00:00,52.3,31.0,30.37,NW,315,4.0,9.0,44,0.00,,---,0.00,VWS V14.01,2013-01-16 01:00:00,
2013-01-15 18:00:00,50.3,30.3,30.38,North,0,2.0,7.0,46,0.00,,---,0.00,VWS V14.01,2013-01-16 02:00:00,
2013-01-15 19:00:00,47.3,29.1,30.39,NE,45,0.0,3.0,49,0.00,,---,0.00,VWS V14.01,2013-01-16 03:00:00,
2013-01-15 20:00:00,48.3,29.5,30.38,NNE,22,1.0,5.0,48,0.00,,---,0.00,VWS V14.01,2013-01-16 04:00:00,
2013-01-15 21:00:00,45.5,29.8,30.39,East,90,1.0,4.0,54,0.00,,---,0.00,VWS V14.01,2013-01-16 05:00:00,
2013-01-15 22:00:00,41.8,30.5,30.39,NNE,22,0.0,2.0,64,0.00,,---,0.00,VWS V14.01,2013-01-16 06:00:00,
2013-01-15 23:00:00,41.1,31.0,30.38,SW,225,1.0,3.0,67,0.00,,---,0.00,VWS V14.01,2013-01-16 07:00:00,